Time,TemperatureF,DewpointF,PressureIn,WindDirection,WindDirectionDegrees,WindSpeedMPH,WindSpeedGustMPH,Humidity,HourlyPrecipIn,Conditions,Clouds,dailyrainin,SoftwareType,DateUTC
2013-01-13 00:09:00,59.7,55.8,28.94,North,0,0.0,0.0,87,0.00,,---,0.00,VWS V14.00,2013-01-13 05:09:00,
2013-01-13 00:15:00,59.7,55.8,28.94,North,0,0.0,0.0,87,0.00,,---,0.00,VWS V14.00,2013-01-13 05:15:00,
2013-01-13 00:18:00,59.7,55.8,28.94,North,0,0.0,0.0,87,0.00,,---,0.00,VWS V14.00,2013-01-13 05:18:00,
2013-01-13 00:21:00,59.7,55.8,28.94,North,0,0.0,0.0,87,0.00,,---,0.00,VWS V14.00,2013-01-13 05:21:00,
2013-01-13 00:24:00,59.5,55.3,28.94,North,0,0.0,0.0,86,0.00,,---,0.00,VWS V14.00,2013-01-13 05:24:00,
2013-01-13 00:30:00,59.5,55.7,28.94,North,0,0.0,0.0,87,0.00,,---,0.00,VWS V14.00,2013-01-13 05:30:00,
2013-01-13 00:36:00,59.4,55.5,28.91,North,0,0.0,0.0,87,0.00,,---,0.00,VWS V14.00,2013-01-13 05:36:00,
2013-01-13 00:42:00,59.4,55.5,28.91,North,0,0.0,0.0,87,0.00,,---,0.00,VWS V14.00,2013-01-13 05:42:00,
2013-01-13 00:48:00,59.4,55.5,28.91,North,0,0.0,2.0,87,0.00,,---,0.00,VWS V14.00,2013-01-13 05:48:00,
2013-01-13 00:54:00,59.2,55.3,28.91,North,0,0.0,2.0,87,0.00,,---,0.00,VWS V14.00,2013-01-13 05:54:00,
2013-01-13 01:00:00,59.2,55.3,28.91,North,0,0.0,2.0,87,0.00,,---,0.00,VWS V14.00,2013-01-13 06:00:00,
2013-01-13 01:06:00,59.2,55.3,28.91,North,0,0.0,0.0,87,0.00,,---,0.00,VWS V14.00,2013-01-13 06:06:00,
2013-01-13 01:12:00,58.8,55.0,28.91,North,0,0.0,0.0,87,0.00,,---,0.00,VWS V14.00,2013-01-13 06:12:00,
2013-01-13 01:18:00,58.8,55.0,28.91,North,0,0.0,0.0,87,0.00,,---,0.00,VWS V14.00,2013-01-13 06:18:00,
2013-01-13 01:24:00,58.8,55.0,28.91,North,0,0.0,0.0,87,0.00,,---,0.00,VWS V14.00,2013-01-13 06:24:00,
2013-01-13 01:30:00,58.6,54.8,28.91,North,0,0.0,0.0,87,0.00,,---,0.00,VWS V14.00,2013-01-13 06:30:00,
2013-01-13 01:36:00,58.5,54.6,28.91,North,0,0.0,0.0,87,0.00,,---,0.00,VWS V14.00,2013-01-13 06:36:00,
2013-01-13 01:42:00,58.3,54.4,28.91,North,0,2.0,2.0,87,0.00,,---,0.00,VWS V14.00,2013-01-13 06:42:00,
2013-01-13 01:48:00,58.3,54.4,28.91,North,0,0.0,2.2,87,0.00,,---,0.00,VWS V14.00,2013-01-13 06:48:00,
2013-01-13 01:54:00,57.9,54.1,28.94,ENE,68,0.0,2.2,87,0.00,,---,0.00,VWS V14.00,2013-01-13 06:54:00,
2013-01-13 02:00:00,57.9,54.1,28.94,North,0,0.0,2.2,87,0.00,,---,0.00,VWS V14.00,2013-01-13 07:00:00,
2013-01-13 02:06:00,58.1,54.3,28.94,North,0,0.0,1.3,87,0.00,,---,0.00,VWS V14.00,2013-01-13 07:06:00,
2013-01-13 02:12:00,57.9,54.1,28.94,North,0,0.0,1.3,87,0.00,,---,0.00,VWS V14.00,2013-01-13 07:12:00,
2013-01-13 02:18:00,57.9,54.1,28.94,North,0,0.0,1.3,87,0.00,,---,0.00,VWS V14.00,2013-01-13 07:18:00,
2013-01-13 02:24:00,57.7,53.9,28.94,North,0,0.0,1.3,87,0.00,,---,0.00,VWS V14.00,2013-01-13 07:24:00,
2013-01-13 02:30:00,57.6,53.7,28.94,North,0,0.0,1.3,87,0.00,,---,0.00,VWS V14.00,2013-01-13 07:30:00,
2013-01-13 02:36:00,57.6,53.7,28.91,North,0,0.0,1.3,87,0.00,,---,0.00,VWS V14.00,2013-01-13 07:36:00,
2013-01-13 02:42:00,57.6,53.7,28.91,North,0,0.0,1.3,87,0.00,,---,0.00,VWS V14.00,2013-01-13 07:42:00,
2013-01-13 02:48:00,57.4,53.5,28.91,North,0,0.0,1.3,87,0.00,,---,0.00,VWS V14.00,2013-01-13 07:48:00,
2013-01-13 02:54:00,57.2,53.4,28.91,North,0,0.0,1.3,87,0.00,,---,0.00,VWS V14.00,2013-01-13 07:54:00,
2013-01-13 03:00:00,57.2,53.4,28.91,North,0,0.0,1.3,87,0.00,,---,0.00,VWS V14.00,2013-01-13 08:00:00,
2013-01-13 03:06:00,57.0,53.2,28.94,North,0,0.0,0.0,87,0.00,,---,0.00,VWS V14.00,2013-01-13 08:06:00,
2013-01-13 03:12:00,57.2,53.1,28.94,North,0,0.0,0.0,86,0.00,,---,0.00,VWS V14.00,2013-01-13 08:12:00,
2013-01-13 03:18:00,57.0,53.2,28.94,North,0,0.0,0.0,87,0.00,,---,0.00,VWS V14.00,2013-01-13 08:18:00,
2013-01-13 03:24:00,56.8,53.0,28.91,North,0,0.0,0.0,87,0.00,,---,0.00,VWS V14.00,2013-01-13 08:24:00,
2013-01-13 03:30:00,56.8,53.0,28.91,North,0,0.0,0.0,87,0.00,,---,0.00,VWS V14.00,2013-01-13 08:30:00,
2013-01-13 03:36:00,56.8,53.0,28.91,North,0,0.0,0.0,87,0.00,,---,0.00,VWS V14.00,2013-01-13 08:36:00,
2013-01-13 03:42:00,56.7,52.8,28.91,North,0,0.0,0.0,87,0.00,,---,0.00,VWS V14.00,2013-01-13 08:42:00,
2013-01-13 03:48:00,56.7,52.8,28.91,North,0,0.0,0.0,87,0.00,,---,0.00,VWS V14.00,2013-01-13 08:48:00,
2013-01-13 03:54:00,56.7,52.8,28.91,North,0,0.0,0.0,87,0.00,,---,0.00,VWS V14.00,2013-01-13 08:54:00,
2013-01-13 04:00:00,56.3,52.5,28.91,North,0,0.0,0.0,87,0.00,,---,0.00,VWS V14.00,2013-01-13 09:00:00,
2013-01-13 04:07:00,56.3,52.5,28.91,North,0,0.0,0.0,87,0.00,,---,0.00,VWS V14.00,2013-01-13 09:07:00,
2013-01-13 04:13:00,56.3,52.5,28.91,North,0,0.0,0.0,87,0.00,,---,0.00,VWS V14.00,2013-01-13 09:13:00,
2013-01-13 04:19:00,56.5,53.0,28.91,North,0,0.0,0.0,88,0.00,,---,0.00,VWS V14.00,2013-01-13 09:19:00,
2013-01-13 04:25:00,56.5,53.0,28.91,North,0,0.0,0.0,88,0.00,,---,0.00,VWS V14.00,2013-01-13 09:25:00,
2013-01-13 04:31:00,56.3,52.8,28.91,North,0,0.0,0.0,88,0.00,,---,0.00,VWS V14.00,2013-01-13 09:31:00,
2013-01-13 04:37:00,56.3,52.8,28.91,North,0,0.0,0.0,88,0.00,,---,0.00,VWS V14.00,2013-01-13 09:37:00,
2013-01-13 04:43:00,56.5,53.0,28.91,North,0,0.0,0.0,88,0.00,,---,0.00,VWS V14.00,2013-01-13 09:43:00,
2013-01-13 04:49:00,56.5,53.0,28.91,North,0,0.0,0.0,88,0.00,,---,0.00,VWS V14.00,2013-01-13 09:49:00,
2013-01-13 04:55:00,56.5,53.0,28.91,North,0,0.0,0.0,88,0.00,,---,0.00,VWS V14.00,2013-01-13 09:55:00,
2013-01-13 05:01:00,56.5,53.0,28.91,North,0,0.0,0.0,88,0.00,,---,0.00,VWS V14.00,2013-01-13 10:01:00,
2013-01-13 05:07:00,56.3,52.8,28.91,North,0,0.0,0.0,88,0.00,,---,0.00,VWS V14.00,2013-01-13 10:07:00,
2013-01-13 05:13:00,56.5,53.3,28.91,North,0,0.0,0.0,89,0.00,,---,0.00,VWS V14.00,2013-01-13 10:13:00,
2013-01-13 05:19:00,56.5,53.3,28.91,North,0,0.0,0.0,89,0.00,,---,0.00,VWS V14.00,2013-01-13 10:19:00,
2013-01-13 05:25:00,56.7,53.5,28.91,North,0,0.0,0.0,89,0.00,,---,0.00,VWS V14.00,2013-01-13 10:25:00,
2013-01-13 05:31:00,56.8,53.6,28.91,North,0,0.0,0.0,89,0.00,,---,0.00,VWS V14.00,2013-01-13 10:31:00,
2013-01-13 05:37:00,56.7,53.5,28.91,North,0,0.0,0.0,89,0.00,,---,0.00,VWS V14.00,2013-01-13 10:37:00,
2013-01-13 05:43:00,56.7,53.5,28.91,North,0,0.0,0.0,89,0.00,,---,0.00,VWS V14.00,2013-01-13 10:43:00,
2013-01-13 05:49:00,56.8,53.9,28.91,North,0,1.3,3.4,90,0.00,,---,0.00,VWS V14.00,2013-01-13 10:49:00,
2013-01-13 05:55:00,56.8,53.9,28.91,North,0,0.0,3.4,90,0.00,,---,0.00,VWS V14.00,2013-01-13 10:55:00,
2013-01-13 06:01:00,57.0,54.1,28.91,North,0,2.0,2.2,90,0.00,,---,0.00,VWS V14.00,2013-01-13 11:01:00,
2013-01-13 06:07:00,56.8,53.9,28.91,North,0,0.0,2.2,90,0.00,,---,0.00,VWS V14.00,2013-01-13 11:07:00,
2013-01-13 06:13:00,57.0,54.4,28.94,North,0,0.0,2.2,91,0.00,,---,0.00,VWS V14.00,2013-01-13 11:13:00,
2013-01-13 06:19:00,57.2,54.3,28.94,North,0,0.0,2.2,90,0.00,,---,0.00,VWS V14.00,2013-01-13 11:19:00,
2013-01-13 06:25:00,57.2,54.6,28.94,North,0,0.0,2.2,91,0.00,,---,0.00,VWS V14.00,2013-01-13 11:25:00,
2013-01-13 06:31:00,57.4,54.8,28.94,North,0,0.0,2.2,91,0.00,,---,0.00,VWS V14.00,2013-01-13 11:31:00,
2013-01-13 06:37:00,57.4,54.8,28.94,North,0,0.0,2.2,91,0.00,,---,0.00,VWS V14.00,2013-01-13 11:37:00,
2013-01-13 06:43:00,57.6,54.7,28.94,North,0,0.0,2.2,90,0.00,,---,0.00,VWS V14.00,2013-01-13 11:43:00,
2013-01-13 06:49:00,57.6,55.0,28.94,North,0,0.0,2.2,91,0.00,,---,0.00,VWS V14.00,2013-01-13 11:49:00,
2013-01-13 06:55:00,57.6,55.0,28.94,North,0,0.0,2.2,91,0.00,,---,0.00,VWS V14.00,2013-01-13 11:55:00,
2013-01-13 07:01:00,57.6,55.0,28.94,North,0,0.0,0.0,91,0.00,,---,0.00,VWS V14.00,2013-01-13 12:01:00,
2013-01-13 07:07:00,57.7,55.1,28.94,North,0,0.0,0.0,91,0.00,,---,0.00,VWS V14.00,2013-01-13 12:07:00,
2013-01-13 07:13:00,57.7,55.1,28.94,North,0,0.0,0.0,91,0.00,,---,0.00,VWS V14.00,2013-01-13 12:13:00,
2013-01-13 07:19:00,57.7,55.1,28.94,North,0,0.0,0.0,91,0.00,,---,0.00,VWS V14.00,2013-01-13 12:19:00,
2013-01-13 07:25:00,57.7,55.1,28.94,North,0,0.0,0.0,91,0.00,,---,0.00,VWS V14.00,2013-01-13 12:25:00,
2013-01-13 07:31:00,57.7,55.4,28.94,North,0,0.0,2.2,92,0.00,,---,0.00,VWS V14.00,2013-01-13 12:31:00,
2013-01-13 07:37:00,57.7,55.4,28.97,North,0,0.0,2.2,92,0.00,,---,0.00,VWS V14.00,2013-01-13 12:37:00,
2013-01-13 07:43:00,57.6,55.6,28.97,North,0,0.0,2.2,93,0.00,,---,0.00,VWS V14.00,2013-01-13 12:43:00,
2013-01-13 07:49:00,57.6,55.6,28.97,North,0,0.0,2.2,93,0.00,,---,0.00,VWS V14.00,2013-01-13 12:49:00,
2013-01-13 07:55:00,57.6,55.6,28.97,North,0,0.0,2.2,93,0.00,,---,0.00,VWS V14.00,2013-01-13 12:55:00,
2013-01-13 08:01:00,57.4,55.7,28.97,North,0,0.0,0.0,94,0.00,,---,0.00,VWS V14.00,2013-01-13 13:01:00,
2013-01-13 08:07:00,57.6,55.8,28.97,North,0,0.0,0.0,94,0.00,,---,0.00,VWS V14.00,2013-01-13 13:07:00,
2013-01-13 08:13:00,57.6,55.8,28.97,North,0,0.0,0.0,94,0.00,,---,0.00,VWS V14.00,2013-01-13 13:13:00,
2013-01-13 08:19:00,57.6,56.1,28.97,North,0,0.0,0.0,95,0.00,,---,0.00,VWS V14.00,2013-01-13 13:19:00,
2013-01-13 08:25:00,57.6,56.1,28.97,North,0,0.0,0.0,95,0.00,,---,0.00,VWS V14.00,2013-01-13 13:25:00,
2013-01-13 08:31:00,57.7,56.3,28.97,North,0,0.0,0.0,95,0.00,,---,0.00,VWS V14.00,2013-01-13 13:31:00,
2013-01-13 08:37:00,57.9,56.8,28.97,North,0,0.0,0.0,96,0.00,,---,0.00,VWS V14.00,2013-01-13 13:37:00,
2013-01-13 08:43:00,58.1,57.3,28.97,North,0,0.0,0.0,97,0.00,,---,0.00,VWS V14.00,2013-01-13 13:43:00,
2013-01-13 08:49:00,58.3,57.4,28.97,North,0,0.0,0.0,97,0.00,,---,0.00,VWS V14.00,2013-01-13 13:49:00,
2013-01-13 08:55:00,58.5,57.6,28.97,North,0,0.0,0.0,97,0.00,,---,0.00,VWS V14.00,2013-01-13 13:55:00,
2013-01-13 09:01:00,58.5,57.6,28.97,North,0,0.0,0.0,97,0.00,,---,0.00,VWS V14.00,2013-01-13 14:01:00,
2013-01-13 09:08:00,58.6,57.8,28.97,North,0,0.0,0.0,97,0.00,,---,0.00,VWS V14.00,2013-01-13 14:08:00,
2013-01-13 09:14:00,58.8,58.3,28.97,North,0,2.0,2.0,98,0.00,,---,0.00,VWS V14.00,2013-01-13 14:14:00,
2013-01-13 09:20:00,59.0,58.4,28.97,North,0,0.0,2.0,98,0.00,,---,0.00,VWS V14.00,2013-01-13 14:20:00,
2013-01-13 09:26:00,59.0,58.4,28.97,North,0,0.0,2.0,98,0.00,,---,0.00,VWS V14.00,2013-01-13 14:26:00,
2013-01-13 09:32:00,59.2,58.6,28.97,North,0,0.0,2.0,98,0.00,,---,0.00,VWS V14.00,2013-01-13 14:32:00,
2013-01-13 09:38:00,59.4,59.1,28.97,North,0,0.0,2.0,99,0.00,,---,0.00,VWS V14.00,2013-01-13 14:38:00,
2013-01-13 09:44:00,59.7,59.4,28.97,North,0,0.0,2.0,99,0.00,,---,0.00,VWS V14.00,2013-01-13 14:44:00,
2013-01-13 09:50:00,59.9,59.6,28.97,North,0,0.0,2.0,99,0.00,,---,0.00,VWS V14.00,2013-01-13 14:50:00,
2013-01-13 09:56:00,60.3,60.3,28.97,North,0,0.0,2.0,100,0.00,,---,0.00,VWS V14.00,2013-01-13 14:56:00,
2013-01-13 10:02:00,60.4,60.4,28.97,North,0,0.0,0.0,100,0.00,,---,0.00,VWS V14.00,2013-01-13 15:02:00,
2013-01-13 10:08:00,60.6,60.6,28.97,North,0,0.0,0.0,100,0.00,,---,0.00,VWS V14.00,2013-01-13 15:08:00,
2013-01-13 10:14:00,60.8,60.8,28.97,SSE,158,0.0,2.2,100,0.00,,---,0.00,VWS V14.00,2013-01-13 15:14:00,
2013-01-13 10:20:00,61.2,61.2,28.97,SSE,158,0.0,2.2,100,0.00,,---,0.00,VWS V14.00,2013-01-13 15:20:00,
2013-01-13 10:26:00,61.3,61.3,28.97,SSE,158,0.0,2.2,100,0.00,,---,0.00,VWS V14.00,2013-01-13 15:26:00,
2013-01-13 10:32:00,61.9,61.9,28.97,SSE,158,0.0,2.2,100,0.00,,---,0.00,VWS V14.00,2013-01-13 15:32:00,
2013-01-13 10:38:00,61.9,61.9,28.97,SE,135,2.2,2.2,100,0.00,,---,0.00,VWS V14.00,2013-01-13 15:38:00,
2013-01-13 10:44:00,62.1,62.1,28.97,SSE,158,0.0,2.2,100,0.00,,---,0.00,VWS V14.00,2013-01-13 15:44:00,
2013-01-13 10:50:00,62.2,62.2,28.97,SSE,158,0.0,2.2,100,0.00,,---,0.00,VWS V14.00,2013-01-13 15:50:00,
2013-01-13 10:56:00,62.4,62.4,28.97,SSE,158,0.0,2.2,100,0.00,,---,0.00,VWS V14.00,2013-01-13 15:56:00,
2013-01-13 11:02:00,62.6,62.3,28.97,SSE,158,0.0,0.0,99,0.00,,---,0.00,VWS V14.00,2013-01-13 16:02:00,
2013-01-13 11:08:00,62.6,62.0,28.97,SSE,158,0.0,0.0,98,0.00,,---,0.00,VWS V14.00,2013-01-13 16:08:00,
2013-01-13 11:14:00,63.0,62.4,28.97,SSE,158,0.0,0.0,98,0.00,,---,0.00,VWS V14.00,2013-01-13 16:14:00,
2013-01-13 11:20:00,63.1,62.6,28.97,SSE,158,0.0,0.0,98,0.00,,---,0.00,VWS V14.00,2013-01-13 16:20:00,
2013-01-13 11:26:00,63.7,63.1,28.97,SSE,158,0.0,0.0,98,0.00,,---,0.00,VWS V14.00,2013-01-13 16:26:00,
2013-01-13 11:32:00,63.5,62.3,28.97,SE,135,0.0,0.0,96,0.00,,---,0.00,VWS V14.00,2013-01-13 16:32:00,
2013-01-13 11:38:00,63.5,62.3,28.97,SSE,158,0.0,2.5,96,0.00,,---,0.00,VWS V14.00,2013-01-13 16:38:00,
2013-01-13 11:44:00,63.5,62.0,28.97,SSE,158,0.0,2.5,95,0.00,,---,0.00,VWS V14.00,2013-01-13 16:44:00,
2013-01-13 11:50:00,63.5,62.0,28.97,SSE,158,0.0,2.5,95,0.00,,---,0.00,VWS V14.00,2013-01-13 16:50:00,
2013-01-13 11:56:00,63.7,62.2,28.97,SSE,158,0.0,2.5,95,0.00,,---,0.00,VWS V14.00,2013-01-13 16:56:00,
2013-01-13 12:02:00,63.9,62.4,28.97,SE,135,1.3,2.9,95,0.00,,---,0.00,VWS V14.00,2013-01-13 17:02:00,
2013-01-13 12:08:00,63.9,62.1,28.97,ESE,112,1.1,2.9,94,0.00,,---,0.00,VWS V14.00,2013-01-13 17:08:00,
2013-01-13 12:14:00,63.9,62.1,28.94,SE,135,0.0,2.9,94,0.00,,---,0.00,VWS V14.00,2013-01-13 17:14:00,
2013-01-13 12:20:00,64.0,62.3,28.94,SSE,158,0.0,2.9,94,0.00,,---,0.00,VWS V14.00,2013-01-13 17:20:00,
2013-01-13 12:26:00,64.0,62.3,28.94,SSE,158,0.0,2.9,94,0.00,,---,0.00,VWS V14.00,2013-01-13 17:26:00,
2013-01-13 12:32:00,64.0,62.0,28.94,North,0,0.0,2.9,93,0.00,,---,0.00,VWS V14.00,2013-01-13 17:32:00,
2013-01-13 12:38:00,64.0,62.0,28.94,North,0,0.0,2.9,93,0.00,,---,0.00,VWS V14.00,2013-01-13 17:38:00,
2013-01-13 12:44:00,64.2,62.2,28.94,NNE,22,0.0,2.9,93,0.00,,---,0.00,VWS V14.00,2013-01-13 17:44:00,
2013-01-13 12:50:00,64.2,62.2,28.94,North,0,0.0,2.9,93,0.00,,---,0.00,VWS V14.00,2013-01-13 17:50:00,
2013-01-13 12:56:00,64.2,62.2,28.94,North,0,0.0,2.9,93,0.00,,---,0.00,VWS V14.00,2013-01-13 17:56:00,
2013-01-13 13:02:00,64.2,62.2,28.94,SSE,158,0.0,1.6,93,0.00,,---,0.00,VWS V14.00,2013-01-13 18:02:00,
2013-01-13 13:08:00,64.2,62.2,28.94,NNE,22,0.0,1.6,93,0.00,,---,0.00,VWS V14.00,2013-01-13 18:08:00,
2013-01-13 13:14:00,64.2,62.2,28.94,SSE,158,1.3,2.9,93,0.00,,---,0.00,VWS V14.00,2013-01-13 18:14:00,
2013-01-13 13:20:00,64.2,62.2,28.91,SE,135,0.0,2.9,93,0.00,,---,0.00,VWS V14.00,2013-01-13 18:20:00,
2013-01-13 13:26:00,64.2,62.2,28.91,SSE,158,0.0,2.9,93,0.00,,---,0.00,VWS V14.00,2013-01-13 18:26:00,
2013-01-13 13:32:00,64.2,62.2,28.91,SE,135,0.0,2.9,93,0.00,,---,0.00,VWS V14.00,2013-01-13 18:32:00,
2013-01-13 13:38:00,64.4,62.0,28.91,North,0,0.0,2.9,92,0.00,,---,0.00,VWS V14.00,2013-01-13 18:38:00,
2013-01-13 13:44:00,64.4,62.0,28.91,SSE,158,0.0,2.9,92,0.00,,---,0.00,VWS V14.00,2013-01-13 18:44:00,
2013-01-13 13:51:00,64.4,62.0,28.91,East,90,0.0,2.9,92,0.00,,---,0.00,VWS V14.00,2013-01-13 18:51:00,
2013-01-13 13:57:00,64.4,62.0,28.91,SSE,158,0.0,2.9,92,0.00,,---,0.00,VWS V14.00,2013-01-13 18:57:00,
2013-01-13 14:03:00,64.6,62.2,28.91,ESE,112,1.1,1.1,92,0.00,,---,0.00,VWS V14.00,2013-01-13 19:03:00,
2013-01-13 14:09:00,64.8,62.4,28.91,SE,135,0.0,1.1,92,0.00,,---,0.00,VWS V14.00,2013-01-13 19:09:00,
2013-01-13 14:15:00,65.3,62.9,28.91,SE,135,2.0,2.5,92,0.00,,---,0.00,VWS V14.00,2013-01-13 19:15:00,
2013-01-13 14:21:00,65.5,63.1,28.91,East,90,1.6,2.5,92,0.00,,---,0.00,VWS V14.00,2013-01-13 19:21:00,
2013-01-13 14:27:00,66.0,63.3,28.91,SE,135,3.1,3.6,91,0.00,,---,0.00,VWS V14.00,2013-01-13 19:27:00,
2013-01-13 14:33:00,66.4,63.4,28.91,SE,135,2.0,3.6,90,0.00,,---,0.00,VWS V14.00,2013-01-13 19:33:00,
2013-01-13 14:39:00,66.6,63.2,28.91,SE,135,3.1,4.3,89,0.00,,---,0.00,VWS V14.00,2013-01-13 19:39:00,
2013-01-13 14:45:00,66.9,63.3,28.91,ESE,112,3.4,4.3,88,0.00,,---,0.00,VWS V14.00,2013-01-13 19:45:00,
2013-01-13 14:51:00,67.1,63.1,28.91,SE,135,4.0,4.3,87,0.00,,---,0.00,VWS V14.00,2013-01-13 19:51:00,
2013-01-13 14:57:00,67.5,63.1,28.91,SSE,158,4.9,4.9,86,0.00,,---,0.00,VWS V14.00,2013-01-13 19:57:00,
2013-01-13 15:03:00,67.8,63.2,28.91,SSE,158,3.1,3.1,85,0.00,,---,0.00,VWS V14.00,2013-01-13 20:03:00,
2013-01-13 15:09:00,67.6,62.6,28.91,SSE,158,0.9,5.4,84,0.00,,---,0.00,VWS V14.00,2013-01-13 20:09:00,
2013-01-13 15:15:00,67.8,62.8,28.91,SSE,158,0.0,5.4,84,0.00,,---,0.00,VWS V14.00,2013-01-13 20:15:00,
2013-01-13 15:21:00,67.8,62.8,28.91,SE,135,0.0,5.4,84,0.00,,---,0.00,VWS V14.00,2013-01-13 20:21:00,
2013-01-13 15:27:00,68.0,62.7,28.91,East,90,2.2,5.4,83,0.00,,---,0.00,VWS V14.00,2013-01-13 20:27:00,
2013-01-13 15:33:00,68.0,62.7,28.91,North,0,0.9,5.4,83,0.00,,---,0.00,VWS V14.00,2013-01-13 20:33:00,
2013-01-13 15:39:00,68.2,62.8,28.91,East,90,0.0,5.4,83,0.00,,---,0.00,VWS V14.00,2013-01-13 20:39:00,
2013-01-13 15:45:00,68.2,62.5,28.91,North,0,0.0,5.4,82,0.00,,---,0.00,VWS V14.00,2013-01-13 20:45:00,
2013-01-13 15:51:00,68.2,62.5,28.91,SSE,158,0.0,5.4,82,0.00,,---,0.00,VWS V14.00,2013-01-13 20:51:00,
2013-01-13 15:57:00,68.2,62.5,28.91,SE,135,0.0,5.4,82,0.00,,---,0.00,VWS V14.00,2013-01-13 20:57:00,
2013-01-13 16:03:00,68.2,62.5,28.91,SE,135,1.6,1.6,82,0.00,,---,0.00,VWS V14.00,2013-01-13 21:03:00,
2013-01-13 16:09:00,68.2,62.5,28.91,SSE,158,0.9,2.5,82,0.00,,---,0.00,VWS V14.00,2013-01-13 21:09:00,
2013-01-13 16:15:00,68.2,62.5,28.91,SSE,158,0.0,2.7,82,0.00,,---,0.00,VWS V14.00,2013-01-13 21:15:00,
2013-01-13 16:21:00,68.2,62.5,28.91,SE,135,2.0,2.7,82,0.00,,---,0.00,VWS V14.00,2013-01-13 21:21:00,
2013-01-13 16:27:00,68.2,62.5,28.91,SSE,158,0.0,2.7,82,0.00,,---,0.00,VWS V14.00,2013-01-13 21:27:00,
2013-01-13 16:33:00,68.2,62.1,28.91,SSE,158,0.0,2.7,81,0.00,,---,0.00,VWS V14.00,2013-01-13 21:33:00,
2013-01-13 16:39:00,68.0,62.3,28.91,SSE,158,0.0,2.7,82,0.00,,---,0.00,VWS V14.00,2013-01-13 21:39:00,
2013-01-13 16:45:00,68.0,62.3,28.91,SSE,158,0.0,2.7,82,0.00,,---,0.00,VWS V14.00,2013-01-13 21:45:00,
2013-01-13 16:51:00,67.8,62.1,28.91,SSE,158,0.0,2.7,82,0.00,,---,0.00,VWS V14.00,2013-01-13 21:51:00,
2013-01-13 16:57:00,67.8,62.1,28.91,SE,135,1.1,2.7,82,0.00,,---,0.00,VWS V14.00,2013-01-13 21:57:00,
2013-01-13 17:03:00,67.6,62.0,28.91,ESE,112,0.0,0.0,82,0.00,,---,0.00,VWS V14.00,2013-01-13 22:03:00,
2013-01-13 17:09:00,67.5,62.1,28.91,ESE,112,0.0,0.0,83,0.00,,---,0.00,VWS V14.00,2013-01-13 22:09:00,
2013-01-13 17:15:00,67.3,62.0,28.91,SE,135,0.0,0.0,83,0.00,,---,0.00,VWS V14.00,2013-01-13 22:15:00,
2013-01-13 17:21:00,67.1,61.8,28.91,SE,135,0.0,0.0,83,0.00,,---,0.00,VWS V14.00,2013-01-13 22:21:00,
2013-01-13 17:27:00,66.7,61.8,28.91,SE,135,0.0,0.0,84,0.00,,---,0.00,VWS V14.00,2013-01-13 22:27:00,
2013-01-13 17:33:00,66.6,61.6,28.91,SE,135,0.0,0.0,84,0.00,,---,0.00,VWS V14.00,2013-01-13 22:33:00,
2013-01-13 17:39:00,66.2,61.2,28.91,SE,135,0.0,0.0,84,0.00,,---,0.00,VWS V14.00,2013-01-13 22:39:00,
2013-01-13 17:45:00,66.0,61.4,28.91,SE,135,0.0,0.0,85,0.00,,---,0.00,VWS V14.00,2013-01-13 22:45:00,
2013-01-13 17:51:00,65.7,61.0,28.91,SE,135,0.0,0.0,85,0.00,,---,0.00,VWS V14.00,2013-01-13 22:51:00,
2013-01-13 17:57:00,65.5,61.2,28.91,East,90,0.0,0.0,86,0.00,,---,0.00,VWS V14.00,2013-01-13 22:57:00,
2013-01-13 18:03:00,65.1,60.8,28.91,NE,45,0.0,0.0,86,0.00,,---,0.00,VWS V14.00,2013-01-13 23:03:00,
2013-01-13 18:09:00,64.9,60.7,28.91,North,0,0.0,0.0,86,0.00,,---,0.00,VWS V14.00,2013-01-13 23:09:00,
2013-01-13 18:15:00,64.6,60.3,28.91,North,0,0.0,0.0,86,0.00,,---,0.00,VWS V14.00,2013-01-13 23:15:00,
2013-01-13 18:21:00,64.2,60.0,28.91,North,0,0.0,0.0,86,0.00,,---,0.00,VWS V14.00,2013-01-13 23:21:00,
2013-01-13 18:27:00,63.9,59.6,28.91,North,0,0.0,0.0,86,0.00,,---,0.00,VWS V14.00,2013-01-13 23:27:00,
2013-01-13 18:33:00,63.7,59.7,28.91,North,0,0.0,0.0,87,0.00,,---,0.00,VWS V14.00,2013-01-13 23:33:00,
2013-01-13 18:40:00,63.7,59.7,28.91,North,0,0.0,0.0,87,0.00,,---,0.00,VWS V14.00,2013-01-13 23:40:00,
2013-01-13 18:46:00,63.3,59.4,28.91,North,0,0.0,0.0,87,0.00,,---,0.00,VWS V14.00,2013-01-13 23:46:00,
2013-01-13 18:52:00,63.1,59.2,28.88,North,0,0.0,0.0,87,0.00,,---,0.00,VWS V14.00,2013-01-13 23:52:00,
2013-01-13 18:58:00,63.1,59.2,28.88,North,0,0.0,0.0,87,0.00,,---,0.00,VWS V14.00,2013-01-13 23:58:00,
2013-01-13 19:04:00,63.0,59.4,28.88,North,0,0.0,0.0,88,0.00,,---,0.00,VWS V14.00,2013-01-14 00:04:00,
2013-01-13 19:10:00,62.8,59.2,28.91,North,0,0.0,0.0,88,0.00,,---,0.00,VWS V14.00,2013-01-14 00:10:00,
2013-01-13 19:16:00,62.8,59.2,28.91,North,0,0.0,0.0,88,0.00,,---,0.00,VWS V14.00,2013-01-14 00:16:00,
2013-01-13 19:22:00,62.6,59.0,28.91,North,0,0.0,0.0,88,0.00,,---,0.00,VWS V14.00,2013-01-14 00:22:00,
2013-01-13 19:28:00,62.2,58.7,28.91,North,0,0.0,0.0,88,0.00,,---,0.00,VWS V14.00,2013-01-14 00:28:00,
2013-01-13 19:34:00,62.2,58.7,28.91,North,0,0.0,0.0,88,0.00,,---,0.00,VWS V14.00,2013-01-14 00:34:00,
2013-01-13 19:40:00,61.9,58.3,28.88,North,0,0.0,0.0,88,0.00,,---,0.00,VWS V14.00,2013-01-14 00:40:00,
2013-01-13 19:46:00,61.9,58.3,28.88,North,0,0.0,0.0,88,0.00,,---,0.00,VWS V14.00,2013-01-14 00:46:00,
2013-01-13 19:52:00,61.7,58.4,28.91,North,0,0.0,2.2,89,0.00,,---,0.00,VWS V14.00,2013-01-14 00:52:00,
2013-01-13 19:58:00,61.7,58.4,28.91,North,0,0.0,2.2,89,0.00,,---,0.00,VWS V14.00,2013-01-14 00:58:00,
2013-01-13 20:04:00,61.7,58.4,28.88,North,0,0.0,0.0,89,0.00,,---,0.00,VWS V14.00,2013-01-14 01:04:00,
2013-01-13 20:10:00,61.3,57.8,28.88,North,0,0.0,0.9,88,0.00,,---,0.00,VWS V14.00,2013-01-14 01:10:00,
2013-01-13 20:16:00,61.5,58.6,28.88,North,0,0.0,0.9,90,0.00,,---,0.00,VWS V14.00,2013-01-14 01:16:00,
2013-01-13 20:22:00,61.2,58.2,28.88,ENE,68,0.0,0.9,90,0.00,,---,0.00,VWS V14.00,2013-01-14 01:22:00,
2013-01-13 20:28:00,61.3,58.4,28.88,North,0,0.0,0.9,90,0.00,,---,0.00,VWS V14.00,2013-01-14 01:28:00,
2013-01-13 20:34:00,61.3,58.7,28.88,North,0,0.0,0.9,91,0.00,,---,0.00,VWS V14.00,2013-01-14 01:34:00,
2013-01-13 20:40:00,61.2,58.5,28.88,North,0,0.0,0.9,91,0.00,,---,0.00,VWS V14.00,2013-01-14 01:40:00,
2013-01-13 20:46:00,61.2,58.5,28.88,North,0,0.0,0.9,91,0.00,,---,0.00,VWS V14.00,2013-01-14 01:46:00,
2013-01-13 20:52:00,61.2,58.2,28.88,North,0,0.0,0.9,90,0.00,,---,0.00,VWS V14.00,2013-01-14 01:52:00,
2013-01-13 20:58:00,61.3,58.7,28.88,North,0,0.0,0.9,91,0.00,,---,0.00,VWS V14.00,2013-01-14 01:58:00,
2013-01-13 21:04:00,61.2,58.5,28.88,North,0,0.0,0.0,91,0.00,,---,0.00,VWS V14.00,2013-01-14 02:04:00,
2013-01-13 21:10:00,61.2,58.5,28.88,North,0,0.0,0.0,91,0.00,,---,0.00,VWS V14.00,2013-01-14 02:10:00,
2013-01-13 21:16:00,61.2,58.5,28.88,North,0,0.0,0.0,91,0.00,,---,0.00,VWS V14.00,2013-01-14 02:16:00,
2013-01-13 21:22:00,61.2,58.8,28.88,North,0,0.0,0.0,92,0.00,,---,0.00,VWS V14.00,2013-01-14 02:22:00,
2013-01-13 21:28:00,61.2,58.5,28.88,North,0,0.0,0.0,91,0.00,,---,0.00,VWS V14.00,2013-01-14 02:28:00,
2013-01-13 21:34:00,61.0,58.6,28.88,North,0,0.0,0.0,92,0.00,,---,0.00,VWS V14.00,2013-01-14 02:34:00,
2013-01-13 21:40:00,61.0,58.6,28.88,North,0,0.0,0.0,92,0.00,,---,0.00,VWS V14.00,2013-01-14 02:40:00,
2013-01-13 21:46:00,61.0,58.6,28.88,North,0,0.0,0.0,92,0.00,,---,0.00,VWS V14.00,2013-01-14 02:46:00,
2013-01-13 21:52:00,61.0,58.6,28.91,North,0,0.0,0.0,92,0.00,,---,0.00,VWS V14.00,2013-01-14 02:52:00,
2013-01-13 21:58:00,61.0,58.6,28.91,North,0,0.0,0.0,92,0.00,,---,0.00,VWS V14.00,2013-01-14 02:58:00,
2013-01-13 22:04:00,61.0,59.0,28.88,North,0,0.0,0.0,93,0.00,,---,0.00,VWS V14.00,2013-01-14 03:04:00,
2013-01-13 22:10:00,61.0,59.0,28.88,North,0,0.0,0.0,93,0.00,,---,0.00,VWS V14.00,2013-01-14 03:10:00,
2013-01-13 22:16:00,61.0,59.2,28.88,North,0,0.0,0.0,94,0.00,,---,0.00,VWS V14.00,2013-01-14 03:16:00,
2013-01-13 22:22:00,61.0,59.2,28.88,North,0,0.0,0.0,94,0.00,,---,0.00,VWS V14.00,2013-01-14 03:22:00,
2013-01-13 22:28:00,61.0,59.0,28.88,North,0,0.0,0.0,93,0.00,,---,0.00,VWS V14.00,2013-01-14 03:28:00,
2013-01-13 22:34:00,61.0,59.2,28.88,North,0,0.0,0.0,94,0.00,,---,0.00,VWS V14.00,2013-01-14 03:34:00,
2013-01-13 22:40:00,61.0,59.2,28.88,North,0,0.0,0.0,94,0.00,,---,0.00,VWS V14.00,2013-01-14 03:40:00,
2013-01-13 22:46:00,61.0,59.2,28.88,North,0,0.0,0.0,94,0.00,,---,0.00,VWS V14.00,2013-01-14 03:46:00,
2013-01-13 22:52:00,61.0,59.2,28.88,North,0,0.0,0.0,94,0.00,,---,0.00,VWS V14.00,2013-01-14 03:52:00,
2013-01-13 22:58:00,61.0,59.2,28.88,North,0,0.0,0.0,94,0.00,,---,0.00,VWS V14.00,2013-01-14 03:58:00,
2013-01-13 23:04:00,61.0,59.2,28.88,North,0,0.0,0.0,94,0.00,,---,0.00,VWS V14.00,2013-01-14 04:04:00,
2013-01-13 23:10:00,61.0,59.2,28.88,North,0,0.0,0.0,94,0.00,,---,0.00,VWS V14.00,2013-01-14 04:10:00,
2013-01-13 23:16:00,61.0,59.2,28.88,North,0,0.0,0.0,94,0.00,,---,0.00,VWS V14.00,2013-01-14 04:16:00,
2013-01-13 23:22:00,61.0,59.2,28.88,North,0,0.0,2.0,94,0.00,,---,0.00,VWS V14.00,2013-01-14 04:22:00,
2013-01-13 23:28:00,61.0,59.5,28.88,North,0,0.0,2.0,95,0.00,,---,0.00,VWS V14.00,2013-01-14 04:28:00,
2013-01-13 23:34:00,61.0,59.5,28.91,North,0,0.0,2.0,95,0.00,,---,0.00,VWS V14.00,2013-01-14 04:34:00,
2013-01-13 23:40:00,60.8,59.4,28.91,North,0,0.0,2.0,95,0.00,,---,0.00,VWS V14.00,2013-01-14 04:40:00,
2013-01-13 23:46:00,60.8,59.4,28.91,North,0,0.0,2.0,95,0.00,,---,0.00,VWS V14.00,2013-01-14 04:46:00,
2013-01-13 23:52:00,61.0,59.8,28.91,North,0,0.0,2.0,96,0.04,,---,0.04,VWS V14.00,2013-01-14 04:52:00,
2013-01-13 23:59:00,60.8,59.7,28.91,North,0,0.9,2.0,96,0.04,,---,0.04,VWS V14.00,2013-01-14 04:59:00,